Location: Newark
(13.6797°N, 8.5297°E)
Time: 21:19:43
(UTC+00:00)

A-11 Canister half - Pass Details

Date: 26 January 2020
Orbit: 1517 x 1683 km, 47.2° (Epoch: 19 February)

Event Time Altitude Azimuth Distance (km) Brightness Sun altitude
Rises 08:51:16 0° 287° (WNW) 4,706 11.1 37.6°
Reaches altitude 10° 08:55:46 10° 269° (W) 3,750 10.8 38.4°
Maximum altitude 09:01:18 17° 232° (SW) 3,262 10.8 39.5°
Drops below altitude 10° 09:06:58 10° 196° (SSW) 3,827 11.5 40.6°
Sets 09:11:43 0° 177° (S) 4,845 12.1 41.4°
